UNISAT 6

导读 | 豆包AI

UNISAT-6是意大利GAUSS团队研制的多功能微型卫星,于2014年6月19日发射入轨,运行在约600×700公里的近地轨道。卫星重量仅26千克,设计低功耗,具备多任务承载能力,作为大学卫星项目,验证了小卫星多功能设计理念,为后续微纳卫星技术积累了实践经验,目前已长期稳定在轨运行超过十年。

Basic Information
目录编号:
40012
目录名称:
UNISAT 6
国际标识:
2014-033C
轨道中心:
EARTH
卫星名称:
UNISAT 6
卫星全名:
--
卫星状态:
在轨 (已飞行4333 天)
发射日期:
2014-06-19 UTC
国别 :
意大利 (IT)
星等 :
--
Orbit Information
数据来源 国际轨道数据
星历时间: 2026-04-30T23:51:42+0800
6小时前
查看轨道信息
半长轴: 6982.442km
偏心率: 0.0044374
轨道倾角: 97.782°
近地点辐角 223.776°
升交点赤经 274.235°
平近点角 135.993°
近地点: 573.321km
远地点: 635.289km
周期: 96.777分钟
每日圈数: 14.87962
Detailed Information
使用方式:
暂无
2D Orbit Map
3D Orbit Map
Orbit Altitude Analysis Chart
Orbit Inclination Analysis Chart
Orbit Comprehensive Analysis Chart
View Comprehensive Chart